Weather in Davydovka

Russia / Kurgan Oblast     54°55′59″N   65°23′41″E
temp.,
°C
wind,
m/s
gust,
m/s
humid.,
%
clouds,
%
prec.,
mm/h
press.,
hPa
HPBL,
m
15 may, sat
sat1523:00+21ssw48395 0.0 102398
02:00+19sw49423 0.0 1023140
05:00+16wsw475899 0.3 102393
08:00+22wsw46445 0.9 1022225
11:00+27w34325 0.9 1022805
14:00+30wnw672394 0.0 10203160
17:00+30wnw67235 0.0 10192703
20:00+25w33407 0.0 101928
16 may, sun
sun1623:00+21wsw3643100 0.0 101971
02:00+19wnw345050 0.0 101960
05:00+18wnw33585 0.0 102037
08:00+22wnw474923 0.0 1020288
11:00+28wnw5733100 0.0 10201044
14:00+31wnw692318 0.0 10192425
17:00+31wnw69235 0.0 10192796
20:00+25w48385 0.0 101995
17 may, mon
mon1723:00+23w33335 0.0 101822
02:00+22wnw113841 0.0 101914
05:00+19w224775 0.0 101914
08:00+24w35390 0.0 1020254
11:00+29wnw46280 0.0 10191399
14:00+31w69225 0.0 10183751
17:00+30wnw682431 0.0 10173214
20:00+24nw33393 0.0 101638
18 may, tue
tue1823:00+21wsw454349 0.0 101667
02:00+19wnw410465 0.0 1016170
05:00+17wnw3461100 0.0 101666
08:00+22w4554100 0.3 1016242
11:00+27wnw583764 0.3 10152308
14:00+28wnw7930100 0.0 10133381
17:00+27nw710321 0.0 10132498
20:00+18ne101365100 0.1 1015418
19 may, wed
wed1923:00+16nnw47805 0.6 1015189
02:00+13n512903 0.0 1017455
05:00+13nne71086100 0.0 1019675
08:00+14nne797393 0.0 1021901
11:00+16ne665932 0.0 10231113
14:00+19ne46415 0.0 10231424
17:00+21ne453581 0.0 10231608
20:00+17ne344870 0.0 102359